This is the latest recevied weather packets stored in our database for station/object LU3GHF-13. If no packets are shown the sender has not sent any weather packets the latest 10 day(s).
| Time | Temp. | Humidity | Pressure | Rain* | Wind** | Luminosity | Snow |
|---|---|---|---|---|---|---|---|
| 1788566877 | 20.56° C | 54% | 1010 hPa | - | - | - | - |
| 1788566247 | 20° C | 54% | 1009.9 hPa | - | - | - | - |
| 1788565624 | 20.56° C | 53% | 1009.7 hPa | - | - | - | - |
| 1788565002 | 20° C | 53% | 1009.6 hPa | - | - | - | - |
| 1788564392 | 20° C | 53% | 1009.4 hPa | - | - | - | - |
| 1788563746 | 20° C | 52% | 1009.3 hPa | - | - | - | - |
| 1788563123 | 20.56° C | 51% | 1009.2 hPa | - | - | - | - |
| 1788562489 | 21.11° C | 50% | 1008.9 hPa | - | - | - | - |
| 1788561858 | 20.56° C | 49% | 1008.8 hPa | - | - | - | - |
| 1788561234 | 20.56° C | 48% | 1008.7 hPa | - | - | - | - |
| 1788560592 | 21.11° C | 48% | 1008.7 hPa | - | - | - | - |
| 1788559966 | 21.67° C | 47% | 1008.6 hPa | - | - | - | - |
| 1788559363 | 21.67° C | 47% | 1008.6 hPa | - | - | - | - |
| 1788558743 | 21.67° C | 47% | 1008.5 hPa | - | - | - | - |
| 1788558117 | 21.67° C | 46% | 1008.3 hPa | - | - | - | - |
| 1788557517 | 21.67° C | 45% | 1008.3 hPa | - | - | - | - |
| 1788556882 | 21.67° C | 46% | 1008.2 hPa | - | - | - | - |
| 1788556262 | 22.22° C | 45% | 1008.2 hPa | - | - | - | - |
| 1788555611 | 22.22° C | 46% | 1008.1 hPa | - | - | - | - |
| 1788554981 | 22.22° C | 45% | 1008 hPa | - | - | - | - |
| 1788554335 | 22.22° C | 45% | 1008.1 hPa | - | - | - | - |
| 1788553710 | 22.22° C | 45% | 1008.1 hPa | - | - | - | - |
| 1788553063 | 22.22° C | 46% | 1007.8 hPa | - | - | - | - |
| 1788552405 | 22.22° C | 45% | 1007.8 hPa | - | - | - | - |
| 1788551798 | 22.22° C | 44% | 1007.7 hPa | - | - | - | - |
* Rain since midnight (hover to see other rain measurements)
** Current wind speed in m/s (hover to see current wind gust speed)